![]() |
EMODnet Physics ERDDAP
Easier access to scientific data |
log in|
Brought to you by EMODnet Physics |
| Dataset Title: | NDBC - Collection of dew point temperature (DEWT) TimeSeries - IN SITU MultiPointTimeSeriesObservation
|
| Institution: | NDBC (Dataset ID: TS_DEWT_NDBC) |
| Information: | Summary
| License
| FGDC
| ISO 19115
| Metadata
| Background
| Subset
| Data Access Form
| Make a graph
|
| Name | Last modified | Size | Description | |
|---|---|---|---|---|
| Parent Directory | - | - | ||
| 51203_TS_DEWT_012008.nc | 27-Oct-2024 03:54 | 1266261 | ||
| 51203_TS_DEWT_012009.nc | 27-Oct-2024 03:54 | 451193 | ||
| 51203_TS_DEWT_012010.nc | 27-Oct-2024 03:54 | 647086 | ||
| 51203_TS_DEWT_012011.nc | 27-Oct-2024 03:54 | 1113813 | ||
| 51203_TS_DEWT_012012.nc | 27-Oct-2024 03:54 | 1113277 | ||
| 51203_TS_DEWT_012013.nc | 27-Oct-2024 03:54 | 445459 | ||
| 51203_TS_DEWT_012014.nc | 27-Oct-2024 03:54 | 424824 | ||
| 51203_TS_DEWT_012015.nc | 27-Oct-2024 03:54 | 426139 | ||
| 51203_TS_DEWT_012017.nc | 16-Sep-2024 16:51 | 425486 | ||
| 51203_TS_DEWT_022008.nc | 27-Oct-2024 03:54 | 421960 | ||
| 51203_TS_DEWT_022010.nc | 27-Oct-2024 03:54 | 424084 | ||
| 51203_TS_DEWT_022011.nc | 27-Oct-2024 03:54 | 422341 | ||
| 51203_TS_DEWT_022012.nc | 27-Oct-2024 03:54 | 422377 | ||
| 51203_TS_DEWT_022013.nc | 27-Oct-2024 03:54 | 421416 | ||
| 51203_TS_DEWT_022014.nc | 27-Oct-2024 03:55 | 420336 | ||
| 51203_TS_DEWT_022015.nc | 27-Oct-2024 03:55 | 421651 | ||
| 51203_TS_DEWT_022016.nc | 27-Oct-2024 03:55 | 419542 | ||
| 51203_TS_DEWT_022017.nc | 16-Sep-2024 16:51 | 419998 | ||
| 51203_TS_DEWT_032009.nc | 27-Oct-2024 03:55 | 419656 | ||
| 51203_TS_DEWT_032010.nc | 27-Oct-2024 03:55 | 420247 | ||
| 51203_TS_DEWT_032011.nc | 27-Oct-2024 03:55 | 422296 | ||
| 51203_TS_DEWT_032012.nc | 27-Oct-2024 03:55 | 421626 | ||
| 51203_TS_DEWT_032013.nc | 27-Oct-2024 03:55 | 425976 | ||
| 51203_TS_DEWT_032014.nc | 27-Oct-2024 03:55 | 424951 | ||
| 51203_TS_DEWT_032015.nc | 27-Oct-2024 03:55 | 422642 | ||
| 51203_TS_DEWT_032016.nc | 27-Oct-2024 03:55 | 429615 | ||
| 51203_TS_DEWT_032017.nc | 16-Sep-2024 16:51 | 427170 | ||
| 51203_TS_DEWT_042009.nc | 27-Oct-2024 03:55 | 429139 | ||
| 51203_TS_DEWT_042010.nc | 27-Oct-2024 03:55 | 422087 | ||
| 51203_TS_DEWT_042011.nc | 27-Oct-2024 03:55 | 426302 | ||
| 51203_TS_DEWT_042012.nc | 27-Oct-2024 03:55 | 418818 | ||
| 51203_TS_DEWT_042013.nc | 27-Oct-2024 03:55 | 418817 | ||
| 51203_TS_DEWT_042014.nc | 27-Oct-2024 03:56 | 429266 | ||
| 51203_TS_DEWT_042015.nc | 27-Oct-2024 03:56 | 429206 | ||
| 51203_TS_DEWT_042016.nc | 27-Oct-2024 03:56 | 429280 | ||
| 51203_TS_DEWT_042017.nc | 16-Sep-2024 16:51 | 427808 | ||
| 51203_TS_DEWT_052008.nc | 27-Oct-2024 03:56 | 429287 | ||
| 51203_TS_DEWT_052009.nc | 27-Oct-2024 03:56 | 429295 | ||
| 51203_TS_DEWT_052010.nc | 27-Oct-2024 03:56 | 429291 | ||
| 51203_TS_DEWT_052011.nc | 27-Oct-2024 03:56 | 420724 | ||
| 51203_TS_DEWT_052012.nc | 27-Oct-2024 03:56 | 429291 | ||
| 51203_TS_DEWT_052013.nc | 27-Oct-2024 03:56 | 429294 | ||
| 51203_TS_DEWT_052014.nc | 27-Oct-2024 03:56 | 426106 | ||
| 51203_TS_DEWT_052016.nc | 27-Oct-2024 03:56 | 429293 | ||
| 51203_TS_DEWT_052017.nc | 16-Sep-2024 16:51 | 429280 | ||
| 51203_TS_DEWT_062008.nc | 27-Oct-2024 03:56 | 429287 | ||
| 51203_TS_DEWT_062010.nc | 27-Oct-2024 03:56 | 429289 | ||
| 51203_TS_DEWT_062011.nc | 27-Oct-2024 03:56 | 429298 | ||
| 51203_TS_DEWT_062012.nc | 27-Oct-2024 03:56 | 429293 | ||
| 51203_TS_DEWT_062013.nc | 27-Oct-2024 03:56 | 429291 | ||
| 51203_TS_DEWT_062014.nc | 27-Oct-2024 03:56 | 429292 | ||
| 51203_TS_DEWT_062016.nc | 27-Oct-2024 03:56 | 429291 | ||
| 51203_TS_DEWT_072008.nc | 27-Oct-2024 03:56 | 450471 | ||
| 51203_TS_DEWT_072009.nc | 27-Oct-2024 03:57 | 449753 | ||
| 51203_TS_DEWT_072010.nc | 27-Oct-2024 03:57 | 435341 | ||
| 51203_TS_DEWT_072011.nc | 27-Oct-2024 03:57 | 432218 | ||
| 51203_TS_DEWT_072012.nc | 27-Oct-2024 03:57 | 425924 | ||
| 51203_TS_DEWT_072013.nc | 27-Oct-2024 03:57 | 425041 | ||
| 51203_TS_DEWT_072014.nc | 27-Oct-2024 03:57 | 429442 | ||
| 51203_TS_DEWT_072016.nc | 27-Oct-2024 03:57 | 436017 | ||
| 51203_TS_DEWT_082007.nc | 27-Oct-2024 03:57 | 449755 | ||
| 51203_TS_DEWT_082008.nc | 27-Oct-2024 03:57 | 449317 | ||
| 51203_TS_DEWT_082009.nc | 27-Oct-2024 03:57 | 418820 | ||
| 51203_TS_DEWT_082010.nc | 27-Oct-2024 03:57 | 429436 | ||
| 51203_TS_DEWT_082011.nc | 27-Oct-2024 03:57 | 425819 | ||
| 51203_TS_DEWT_082012.nc | 27-Oct-2024 03:57 | 429606 | ||
| 51203_TS_DEWT_082013.nc | 27-Oct-2024 03:57 | 429607 | ||
| 51203_TS_DEWT_082014.nc | 27-Oct-2024 03:57 | 429591 | ||
| 51203_TS_DEWT_082016.nc | 27-Oct-2024 03:57 | 429510 | ||
| 51203_TS_DEWT_092007.nc | 27-Oct-2024 03:57 | 427706 | ||
| 51203_TS_DEWT_092008.nc | 27-Oct-2024 03:57 | 429621 | ||
| 51203_TS_DEWT_092009.nc | 27-Oct-2024 03:58 | 429615 | ||
| 51203_TS_DEWT_092010.nc | 27-Oct-2024 03:58 | 429607 | ||
| 51203_TS_DEWT_092011.nc | 27-Oct-2024 03:58 | 429623 | ||
| 51203_TS_DEWT_092012.nc | 27-Oct-2024 03:58 | 429434 | ||
| 51203_TS_DEWT_092013.nc | 27-Oct-2024 03:58 | 429619 | ||
| 51203_TS_DEWT_092016.nc | 27-Oct-2024 03:58 | 429629 | ||
| 51203_TS_DEWT_102007.nc | 27-Oct-2024 03:58 | 429599 | ||
| 51203_TS_DEWT_102008.nc | 27-Oct-2024 03:58 | 429615 | ||
| 51203_TS_DEWT_102009.nc | 27-Oct-2024 03:58 | 429628 | ||
| 51203_TS_DEWT_102010.nc | 27-Oct-2024 03:58 | 429618 | ||
| 51203_TS_DEWT_102011.nc | 27-Oct-2024 03:58 | 429297 | ||
| 51203_TS_DEWT_102012.nc | 27-Oct-2024 03:58 | 418794 | ||
| 51203_TS_DEWT_102013.nc | 27-Oct-2024 03:58 | 421677 | ||
| 51203_TS_DEWT_102014.nc | 27-Oct-2024 03:58 | 429614 | ||
| 51203_TS_DEWT_102016.nc | 27-Oct-2024 03:58 | 429622 | ||
| 51203_TS_DEWT_112007.nc | 27-Oct-2024 03:58 | 429622 | ||
| 51203_TS_DEWT_112008.nc | 27-Oct-2024 03:58 | 450354 | ||
| 51203_TS_DEWT_112009.nc | 27-Oct-2024 03:58 | 450300 | ||
| 51203_TS_DEWT_112010.nc | 27-Oct-2024 03:59 | 447768 | ||
| 51203_TS_DEWT_112011.nc | 27-Oct-2024 03:59 | 450408 | ||
| 51203_TS_DEWT_112012.nc | 27-Oct-2024 03:59 | 451275 | ||
| 51203_TS_DEWT_112013.nc | 27-Oct-2024 03:59 | 451177 | ||
| 51203_TS_DEWT_112014.nc | 27-Oct-2024 03:59 | 445018 | ||
| 51203_TS_DEWT_112016.nc | 16-Sep-2024 16:51 | 450864 | ||
| 51203_TS_DEWT_122007.nc | 27-Oct-2024 03:59 | 449819 | ||
| 51203_TS_DEWT_122008.nc | 27-Oct-2024 03:59 | 450360 | ||
| 51203_TS_DEWT_122009.nc | 27-Oct-2024 03:59 | 438212 | ||
| 51203_TS_DEWT_122010.nc | 27-Oct-2024 03:59 | 450628 | ||
| 51203_TS_DEWT_122011.nc | 27-Oct-2024 03:59 | 451097 | ||
| 51203_TS_DEWT_122012.nc | 27-Oct-2024 03:59 | 449142 | ||
| 51203_TS_DEWT_122013.nc | 27-Oct-2024 03:59 | 427199 | ||
| 51203_TS_DEWT_122014.nc | 27-Oct-2024 03:59 | 1012758 | ||
| 51203_TS_DEWT_122016.nc | 16-Sep-2024 16:51 | 983337 | ||